Погода в Балыкчи

Киргизия     42°27′36″N   76°10′28″E
темп.,
°C
ветер,
м/с
пор.,
м/с
влажн.,
%
обл.,
%
осадки,
мм/ч
давл.,
гПа
погр.,
м
17 апреля, сб
сб1700:00+8сз456610 0.5 1017234
03:00+7ссз336878 0.1 101760
06:00+6сз33675 0.1 101846
09:00+9зсз34594 0.0 1018387
12:00+11зсз34447 0.1 10171206
15:00+13сз453816 0.0 10151395
18:00+11сз564422 0.1 1016749
21:00+9сз445615 0.0 1019356
18 апреля, вс
вс1800:00+7с116685 0.0 102062
03:00+7з1168100 0.0 101812
06:00+6зсз017466 0.0 101911
09:00+7ю1163100 0.0 1019387
12:00+9ю1151100 0.1 1017920
15:00+10сз2251100 0.4 10161148
18:00+8сз5666100 0.9 1018373
21:00+6сз5775100 0.6 1020421
19 апреля, пн
пн1900:00+5зсз3471100 0.9 1020400
03:00+6з3461100 0.1 1020325
06:00+5зсз4459100 0.1 1021188
09:00+7зсз334547 0.0 1020562
12:00+9в434281 0.0 10181285
15:00+9в1153100 0.1 1017977
18:00+8с015474 0.1 1016785
21:00+7всв115817 0.0 1017237
20 апреля, вт
вт2000:00+6в226986 0.0 1016179
03:00+5всв1172100 0.0 1015105
06:00+5всв1276100 0.0 1014115
09:00+6вюв116522 0.0 1014456
12:00+8юв215099 0.0 1011853
15:00+10вюв3342100 0.0 1008990
18:00+11с2347100 0.1 1006771
21:00+8ссз3462100 0.0 1007341
21 апреля, ср
ср2100:00+8сз226399 0.1 1005171
03:00+6сз4575100 0.0 1004295
06:00+4сз5674100 0.1 1006334
09:00+4сз6661100 0.3 1009411
12:00+2сз566599 1.1 1013445
15:00+3сз7752100 0.1 1013577
18:00+1сз6654100 0.3 1016478
21:00−1сз6659100 0.0 1021309